Date String (YYYY-MM-DD hh:mm:ss) UTC,Instrument flags,absolute air pressure of the measurement (hPa),sample flow rate (lpm),inlet stack bypass flow (lpm),air temperature of the measurement (°C),ambient temperature measured by the external sensor (°C),aerosol sample conditioner tube jacket temperature (°C),OPC LED temperature (°C),internal box temperature (°C),relative humidity of the measurement (%),span deviation,mass concentration of particles derived from Lorenz-Mie calculation of OPC scattering (μg/m³),mass concentration of particles derived from Lorenz-Mie calculation of OPC scattering (μg/m³),mass concentration of particles derived from Lorenz-Mie calculation of OPC scattering (μg/m³)
DateTimeUTC,F1_M11,P_M11,Q1_M11,Q2_M11,T1_M11,T2_M11,T3_M11,T4_M11,T5_M11,U1_M11,ZSPAN_M11,X0_M11,X2_M11,X1_M11
2023-08-10 14:00:00,SystemResetWarning,0830.1,5.00,000.00,029.8,028.6,000.0,038.4,031.4,24.3,0000.0,0012.55,0006.48,0005.72
2023-08-10 14:01:00,SystemResetWarning,0830.1,4.99,000.00,029.8,028.6,000.0,038.4,031.5,23.6,0000.0,0012.66,0006.46,0005.71
2023-08-10 14:02:00,SystemResetWarning,0830.0,4.99,000.00,029.9,028.6,000.0,038.4,031.5,23.5,0000.0,0012.59,0006.42,0005.70
2023-08-10 14:03:00,SystemResetWarning,0830.0,5.00,000.00,029.9,028.7,000.0,038.4,031.5,23.4,0000.0,0012.43,0006.39,0005.69
2023-08-10 14:04:00,SystemResetWarning,0830.1,4.99,000.00,029.9,028.7,000.0,038.5,031.5,23.4,0000.0,0012.06,0006.41,0005.69
2023-08-10 14:05:00,SystemResetWarning,0830.1,5.01,000.00,029.9,028.7,000.0,038.5,031.6,23.5,0000.0,0012.80,0006.41,0005.68
2023-08-10 14:06:00,SystemResetWarning,0830.1,5.01,000.00,029.9,028.6,000.0,038.5,031.5,23.5,0000.0,0012.75,0006.34,0005.66
2023-08-10 14:07:00,SystemResetWarning,0830.1,4.98,000.00,029.9,026.8,000.0,038.3,031.3,23.4,0000.0,0011.85,0006.30,0005.66
2023-08-10 14:08:00,SystemResetWarning,0830.1,5.01,000.00,029.9,025.6,000.0,038.2,031.1,23.5,0001.4,0011.00,0006.28,0005.65
2023-08-10 14:09:00,SystemResetWarning,0830.1,5.02,000.00,029.8,025.7,000.0,038.2,030.9,23.8,0000.9,0010.77,0006.27,0005.64
2023-08-10 14:10:00,SystemResetWarning,0830.1,5.00,000.00,029.6,025.9,000.0,038.2,030.8,24.0,0000.3,0011.43,0006.28,0005.65
2023-08-10 14:11:00,SystemResetWarning,0830.0,4.99,000.00,029.6,026.3,000.0,038.2,030.9,23.9,0000.0,0011.81,0006.29,0005.65
2023-08-10 14:12:00,SystemResetWarning,0830.0,5.00,000.00,029.6,026.7,000.0,038.3,031.0,25.1,0000.0,0012.27,0006.29,0005.65
2023-08-10 14:13:00,SystemResetWarning,0830.0,5.01,000.00,029.6,027.0,000.0,038.3,031.0,25.5,0000.0,0012.88,0006.30,0005.66
2023-08-10 14:14:00,SystemResetWarning,0830.0,5.00,000.00,029.6,027.3,000.0,038.2,031.1,24.4,0000.0,0013.29,0006.30,0005.65
2023-08-10 14:15:00,SystemResetWarning,0830.0,4.98,000.00,029.6,027.5,000.0,038.2,031.1,24.1,0000.2,0013.75,0006.28,0005.64
2023-08-10 14:16:00,SystemResetWarning,0830.0,5.00,000.00,029.6,027.7,000.0,038.2,031.2,24.1,0000.3,0014.20,0006.22,0005.63
2023-08-10 14:17:00,SystemResetWarning,0830.0,5.01,000.00,029.6,027.8,000.0,038.3,031.2,24.0,0000.5,0014.10,0006.24,0005.66
2023-08-10 14:18:00,SystemResetWarning,0830.0,5.01,000.00,029.6,028.0,000.0,038.3,031.2,23.6,0000.5,0014.18,0006.28,0005.67
2023-08-10 14:19:00,SystemResetWarning,0830.0,5.00,000.00,029.6,028.1,000.0,038.3,031.2,23.4,0001.2,0014.68,0006.31,0005.66
2023-08-10 14:20:00,SystemResetWarning,0830.0,4.99,000.00,029.6,028.2,000.0,038.3,031.2,23.3,0001.2,0015.29,0006.33,0005.66
2023-08-10 14:21:00,SystemResetWarning,0830.0,4.99,000.00,029.7,028.2,000.0,038.3,031.3,23.5,0000.9,0014.69,0006.32,0005.66
2023-08-10 14:22:00,SystemResetWarning,0829.9,5.00,000.00,029.7,028.3,000.0,038.3,031.3,23.7,0001.0,0014.32,0006.33,0005.67
2023-08-10 14:23:00,SystemResetWarning,0829.9,5.01,000.00,029.7,028.4,000.0,038.3,031.3,23.7,0000.7,0013.85,0006.34,0005.67
2023-08-10 14:24:00,SystemResetWarning,0829.9,5.00,000.00,029.7,028.4,000.0,038.3,031.4,23.9,0000.9,0013.00,0006.32,0005.67
2023-08-10 14:25:00,SystemResetWarning,0829.9,4.99,000.00,029.7,028.5,000.0,038.3,031.4,24.3,0001.1,0012.95,0006.31,0005.67
2023-08-10 14:26:00,SystemResetWarning,0830.0,5.00,000.00,029.8,028.5,000.0,038.3,031.4,24.7,0001.1,0012.72,0006.29,0005.67
2023-08-10 14:27:00,SystemResetWarning,0830.0,4.99,000.00,029.8,028.6,000.0,038.4,031.4,24.0,0000.7,0011.86,0006.30,0005.68
2023-08-10 14:28:00,SystemResetWarning,0830.0,4.99,000.00,029.8,028.6,000.0,038.4,031.4,23.7,0000.4,0012.05,0006.37,0005.67
2023-08-10 14:29:00,SystemResetWarning,0830.0,5.01,000.00,029.8,028.6,000.0,038.4,031.5,23.6,0001.0,0012.17,0006.33,0005.67
2023-08-10 14:30:00,SystemResetWarning,0830.0,5.00,000.00,029.8,028.6,000.0,038.4,031.5,23.6,0001.0,0011.97,0006.28,0005.67
2023-08-10 14:31:00,SystemResetWarning,0830.0,5.01,000.00,029.9,028.7,000.0,038.4,031.5,23.6,0001.0,0011.40,0006.24,0005.65
2023-08-10 14:32:00,SystemResetWarning,0830.0,5.00,000.00,029.9,028.7,000.0,038.5,031.5,23.4,0000.7,0011.48,0006.22,0005.64
2023-08-10 14:33:00,SystemResetWarning,0830.0,5.00,000.00,029.9,028.7,000.0,038.5,031.6,23.3,0000.7,0011.60,0006.17,0005.63
2023-08-10 14:34:00,SystemResetWarning,0830.0,5.00,000.00,029.9,028.7,000.0,038.5,031.6,23.2,0000.9,0011.62,0006.17,0005.63
2023-08-10 14:35:00,SystemResetWarning,0830.0,5.00,000.00,030.0,028.8,000.0,038.5,031.6,23.3,0001.1,0011.77,0006.19,0005.64
2023-08-10 14:36:00,SystemResetWarning,0830.0,5.00,000.00,030.0,028.8,000.0,038.5,031.6,23.3,0000.9,0011.62,0006.22,0005.65
2023-08-10 14:37:00,SystemResetWarning,0830.0,5.00,000.00,030.0,028.8,000.0,038.5,031.6,23.3,0000.7,0011.45,0006.23,0005.64
2023-08-10 14:38:00,SystemResetWarning,0830.0,4.99,000.00,030.0,028.6,000.0,038.5,031.6,23.2,0001.5,0012.18,0006.28,0005.64
2023-08-10 14:39:00,SystemResetWarning,0829.8,5.00,000.00,030.0,026.8,000.0,038.4,031.4,23.1,0001.4,0012.48,0006.23,0005.63
2023-08-10 14:40:00,SystemResetWarning,0829.8,5.00,000.00,029.9,025.7,000.0,038.3,031.1,23.2,0001.3,0012.46,0006.24,0005.64
2023-08-10 14:41:00,SystemResetWarning,0829.8,5.01,000.00,029.8,025.7,000.0,038.3,030.9,23.3,0001.6,0012.45,0006.28,0005.65
2023-08-10 14:42:00,SystemResetWarning,0829.9,5.00,000.00,029.7,026.0,000.0,038.3,030.8,23.5,0001.8,0012.42,0006.34,0005.67
2023-08-10 14:43:00,SystemResetWarning,0830.0,5.00,000.00,029.6,026.3,000.0,038.3,030.9,23.5,0002.3,0012.37,0006.38,0005.68
2023-08-10 14:44:00,SystemResetWarning,0830.0,5.00,000.00,029.6,026.7,000.0,038.3,031.0,23.5,0001.8,0012.37,0006.38,0005.68
2023-08-10 14:45:00,SystemResetWarning,0830.0,5.00,000.00,029.6,027.0,000.0,038.3,031.0,23.8,0001.8,0013.34,0006.36,0005.66
2023-08-10 14:46:00,SystemResetWarning,0830.0,5.00,000.00,029.6,027.3,000.0,038.3,031.1,24.1,0000.0,0013.33,0006.35,0005.64
2023-08-10 14:47:00,SystemResetWarning,0830.0,4.99,000.00,029.6,027.5,000.0,038.3,031.2,24.2,0000.0,0013.26,0006.35,0005.64
2023-08-10 14:48:00,SystemResetWarning,0830.0,4.99,000.00,029.6,027.7,000.0,038.3,031.2,24.7,0000.0,0013.78,0006.34,0005.65
2023-08-10 14:49:00,SystemResetWarning,0830.0,5.01,000.00,029.6,027.9,000.0,038.3,031.2,24.1,0001.5,0013.43,0006.31,0005.65
2023-08-10 14:50:00,SystemResetWarning,0830.0,5.01,000.00,029.6,028.0,000.0,038.3,031.3,23.4,0001.3,0012.71,0006.32,0005.66
2023-08-10 14:51:00,SystemResetWarning,0830.0,5.01,000.00,029.6,028.1,000.0,038.3,031.3,23.3,0001.3,0013.07,0006.30,0005.64
2023-08-10 14:52:00,SystemResetWarning,0830.0,5.00,000.00,029.7,028.2,000.0,038.3,031.3,23.3,0000.9,0013.56,0006.32,0005.63
2023-08-10 14:53:00,SystemResetWarning,0830.0,5.00,000.00,029.7,028.3,000.0,038.3,031.3,23.2,0000.5,0013.75,0006.35,0005.62
2023-08-10 14:54:00,SystemResetWarning,0830.0,4.99,000.00,029.7,028.3,000.0,038.3,031.3,23.4,-000.0,0014.12,0006.30,0005.60
2023-08-10 14:55:00,SystemResetWarning,0829.9,5.01,000.00,029.7,028.4,000.0,038.3,031.3,24.0,-000.2,0015.01,0006.28,0005.59
2023-08-10 14:56:00,SystemResetWarning,0830.0,5.00,000.00,029.7,028.4,000.0,038.3,031.3,23.8,-000.1,0014.02,0006.30,0005.60
2023-08-10 14:57:00,SystemResetWarning,0829.9,5.00,000.00,029.8,028.5,000.0,038.3,031.4,23.5,-000.2,0014.21,0006.32,0005.61
2023-08-10 14:58:00,SystemResetWarning,0829.9,5.00,000.00,029.8,028.5,000.0,038.4,031.4,23.3,-000.7,0014.54,0006.31,0005.61
2023-08-10 14:59:00,SystemResetWarning,0830.0,5.00,000.00,029.8,028.5,000.0,038.4,031.4,23.2,-000.7,0014.53,0006.30,0005.60
